Weather History for George, South Africa

Change the Weather History Date:

Friday, January 13, 2012

  Actual Average Record
Temperature  
Mean Temperature 72 °F -  
Max Temperature 81 °F 74 °F - (-1)
Min Temperature 64 °F 58 °F - (-1)
Cooling Degree Days 8    
Growing Degree Days 22 (Base 50)    
Moisture  
Dew Point 63 °F    
Average Humidity 75    
Maximum Humidity 94    
Minimum Humidity 42    
Precipitation  
Precipitation 0.02 in - - ()
Sea Level Pressure  
Sea Level Pressure 29.88 in    
Wind  
Wind Speed 7 mph ()    
Max Wind Speed 21 mph    
Max Gust Speed -    
Visibility 7.2 miles    
Events Rain    
Averages and records for this station are not official NWS values.
T = Trace of Precipitation, MM = Missing Value Source: Averaged Metar Reports

Daily Weather History Graph

Daily Weather History Graph

Search for Another Location

Airport:

Trip Planner

Search our weather history database for the weather conditions in past years. The results will help you decide how hot, cold, wet, or windy it might be!

Date:

Astronomy

Jan. 13, 2012 Rise Set
Actual Time 5:32 AM SAST 7:45 PM SAST
Civil Twilight 5:03 AM SAST 8:13 PM SAST
Nautical Twilight 4:28 AM SAST 8:48 PM SAST
Astronomical Twilight 3:51 AM SAST 9:26 PM SAST
Moon 10:13 PM SAST (1/13) 9:44 AM SAST (1/13)
Length of Visible Light 15h 09m
Length of Day
14h 12m
Waning Gibbous, 81% of the Moon is Illuminated
Jan 13
Waning Gibbous
Jan 16
Last Quarter
Jan 23
New
Jan 31
First Quarter
Feb 7
Full

Hourly Weather History & Observations

Time (SAST) Temp. Heat Index Dew Point Humidity Pressure Visibility Wind Dir Wind Speed Gust Speed Precip Events Conditions
12:00 AM 69.8 °F - 62.6 °F 78% 29.89 in 6.2 mi ENE 5.8 mph - N/A   Mostly Cloudy
1:00 AM 69.8 °F - 62.6 °F 78% 29.86 in 6.2 mi NE 4.6 mph - N/A   Overcast
2:00 AM 69 °F - 62 °F 72% 29.84 in 6 mi ENE 4.6 mph - -  
2:00 AM 69.8 °F - 62.6 °F 78% 29.86 in 6.2 mi ENE 5.8 mph - N/A   Mostly Cloudy
3:00 AM 68.0 °F - 62.6 °F 83% 29.83 in - ENE 5.8 mph - N/A   Clear
4:00 AM 66.2 °F - 62.6 °F 88% 29.80 in - East 6.9 mph - N/A   Clear
5:00 AM 65 °F - 61 °F 83% 29.81 in 12 mi SE 6.9 mph - -   Scattered Clouds
5:00 AM 66.2 °F - 60.8 °F 83% 29.77 in 6.2 mi ESE 8.1 mph - N/A   Partly Cloudy
6:00 AM 66.2 °F - 60.8 °F 83% 29.80 in 6.2 mi SE 6.9 mph - N/A   Partly Cloudy
7:00 AM 68.0 °F - 62.6 °F 83% 29.83 in 6.2 mi Variable 2.3 mph - N/A   Mostly Cloudy
8:00 AM 72 °F - 65 °F 71% 29.86 in 12 mi West 1.2 mph - -   Mostly Cloudy
8:00 AM 71.6 °F - 64.4 °F 78% 29.83 in 6.2 mi Variable 1.2 mph - N/A   Scattered Clouds
9:00 AM 71.6 °F - 64.4 °F 78% 29.86 in 6.2 mi SSE 3.5 mph - N/A   Scattered Clouds
9:34 AM 75.2 °F - 64.4 °F 69% 29.86 in 6.2 mi ESE 5.8 mph - N/A   Scattered Clouds
10:00 AM 77.0 °F - 64.4 °F 65% 29.83 in 6.2 mi SE 6.9 mph - N/A   Scattered Clouds
11:00 AM 76 °F - 65 °F 62% 29.85 in 12 mi SSE 9.2 mph - -   Partly Cloudy
11:00 AM 77.0 °F - 66.2 °F 69% 29.83 in 6.2 mi SE 8.1 mph - N/A   Scattered Clouds
12:00 PM 78.8 °F - 66.2 °F 65% 29.83 in 6.2 mi SSE 11.5 mph - N/A   Scattered Clouds
1:00 PM 78.8 °F - 64.4 °F 61% 29.86 in 6.2 mi SSE 10.4 mph - N/A   Scattered Clouds
2:00 PM 78 °F - 65 °F 55% 29.83 in 12 mi SSE 10.4 mph - -   Partly Cloudy
2:00 PM 78.8 °F - 60.8 °F 54% 29.86 in 6.2 mi South 10.4 mph - N/A   Scattered Clouds
3:00 PM 80.6 °F 80.5 °F 55.4 °F 42% 29.86 in 6.2 mi South 11.5 mph - N/A   Scattered Clouds
4:00 PM 75.2 °F - 64.4 °F 69% 29.89 in 6.2 mi South 11.5 mph - N/A   Scattered Clouds
5:00 PM 72 °F - 64 °F 68% 29.89 in 12 mi SSW 20.7 mph - -   Mostly Cloudy
5:00 PM 71.6 °F - 64.4 °F 78% 29.89 in 6.2 mi SSW 19.6 mph - N/A   Scattered Clouds
6:00 PM 69.8 °F - 62.6 °F 78% 29.92 in 6.2 mi SSW 16.1 mph - N/A   Mostly Cloudy
6:12 PM 68.0 °F - 62.6 °F 83% 29.95 in 5.0 mi SSW 16.1 mph - N/A   Light Drizzle
7:00 PM 66.2 °F - 64.4 °F 94% 29.95 in 5.0 mi SSW 17.3 mph - N/A Rain Light Rain
8:00 PM 65 °F - 61 °F 81% 29.99 in 12 mi SW 9.2 mph - - Rain Light Rain
8:00 PM 66.2 °F - 60.8 °F 83% 30.01 in 6.2 mi SW 9.2 mph - N/A   Mostly Cloudy
9:00 PM 64.4 °F - 60.8 °F 88% 30.01 in 6.2 mi NW 8.1 mph - N/A   Mostly Cloudy
10:00 PM 64.4 °F - 60.8 °F 88% 30.04 in 6.2 mi North 5.8 mph - N/A   Overcast
11:00 PM 64.4 °F - 60.8 °F 88% 30.04 in 6.2 mi North 5.8 mph - N/A   Overcast